Location: R�serve Fauniques des Laurentides
(47.3100°N, 71.1900°W)
Time: 11:45:47
(UTC-04:00)

Amateur Radio Satellites - All Passes

Search period start: 30 June 2016 11:15
Search period end: 01 July 2016 11:15
Location: R�serve Fauniques des Laurentides, 47.3100°N, 71.1900°W

Satellite Date Start Highest point End Downlink Frequencies (MHz)
Time Altitude Azimuth
O/OREOS (USA 219) 30 Jun 11:18:12 11:22:17 33° 55° (NE) 11:26:22 437.305
VELOX 1 30 Jun 11:20:43 11:22:41 13° 89° (E) 11:24:38 145.980
AUBIESAT-1 30 Jun 11:27:58 11:30:59 22° 300° (WNW) 11:34:10 437.475
PCSat 30 Jun 11:27:58 11:33:09 46° 245° (WSW) 11:38:17 145.827
NANOSAT C BR1 30 Jun 11:29:16 11:33:26 80° 256° (WSW) 11:37:40 145.865
QB50P1 30 Jun 11:33:26 11:37:36 69° 258° (WSW) 11:41:49 145.935-145.965
YUBILEINY 30 Jun 11:36:00 11:43:12 30° 81° (E) 11:50:26 435.215
POPSAT HIP 1 30 Jun 11:36:52 11:41:01 64° 259° (W) 11:45:13 437.405
TIGRISAT 30 Jun 11:38:18 11:40:41 14° 272° (W) 11:43:04 435.000
ISS 30 Jun 11:40:38 11:43:43 36° 3° (N) 11:46:48 145.825
HUMSAT D 30 Jun 11:42:19 11:46:29 47° 289° (WNW) 11:50:38 437.325/437.525
UNISAT 6 30 Jun 11:44:58 11:46:36 12° 273° (W) 11:48:15 437.425
Cosmos 2491 30 Jun 11:46:20 11:55:07 84° 81° (E) 12:03:51 435.465 / 435.565
DUCHIFAT 1 30 Jun 11:49:03 11:53:07 52° 260° (W) 11:57:14 145.980
SPROUT 30 Jun 11:49:28 11:50:53 11° 88° (E) 11:52:17 437.525
QB50P2 30 Jun 11:49:55 11:53:55 43° 261° (W) 11:57:58 145.880/145.840
UKube-1 30 Jun 11:50:41 11:53:23 16° 91° (E) 11:56:03 .
BEESAT 3 30 Jun 11:51:32 11:54:26 20° 246° (WSW) 11:57:19 437.485
POLYITAN 1 30 Jun 11:52:34 11:56:33 42° 261° (W) 12:00:36 437.675
AIST 2 30 Jun 11:52:59 11:56:27 24° 38° (NE) 11:59:54 435.215
DELFI C3 30 Jun 11:55:43 11:58:23 17° 297° (WNW) 12:01:01 145.870
AISAT 30 Jun 12:00:15 12:04:14 33° 97° (E) 12:08:12 437.250
ESTCUBE 1 30 Jun 12:03:55 12:08:21 54° 100° (E) 12:12:45 437.505/2401.250
50 SAT 30 Jun 12:04:04 12:07:30 35° 98° (E) 12:10:54 437.505
DX 1 30 Jun 12:13:23 12:17:19 33° 97° (E) 12:21:13 434.975-435.025
Oscar 19 30 Jun 12:32:36 12:37:22 40° 67° (ENE) 12:42:08 437.125/150
BEESAT 2 30 Jun 12:34:02 12:36:05 14° 249° (WSW) 12:38:07 435.950
BUGSAT 1 30 Jun 12:37:20 12:40:58 33° 263° (W) 12:44:37 437.445
CUBEBUG 1 30 Jun 12:41:56 12:46:17 89° 284° (WNW) 12:50:37 437.445
RS-15 30 Jun 12:45:41 12:57:15 81° 309° (NW) 13:09:30 29.354- 29.394
AO-7 30 Jun 12:50:42 12:55:35 17° 39° (NE) 13:00:29 29.400- 29.500
VELOX 1 30 Jun 12:55:17 12:59:41 74° 286° (WNW) 13:04:03 145.980
O/OREOS (USA 219) 30 Jun 12:57:43 13:01:38 30° 255° (WSW) 13:05:34 437.305
JAS-2 30 Jun 12:59:22 13:06:48 59° 259° (W) 13:13:31 435.910
TISAT 1 30 Jun 13:01:19 13:04:07 17° 91° (E) 13:06:54 437.305
ITAMSAT 1 30 Jun 13:01:50 13:04:43 15° 55° (NE) 13:07:37 435.822/435.867
Gurwin Techsat 1B 30 Jun 13:05:28 13:10:18 37° 65° (ENE) 13:15:09 435.225
ISS 30 Jun 13:17:12 13:20:29 74° 24° (NNE) 13:23:44 145.825
Cosmos 2504 30 Jun 13:22:59 13:30:38 44° 86° (E) 13:38:44 435.465 / 435.565
SPROUT 30 Jun 13:23:04 13:27:23 79° 286° (WNW) 13:31:40 437.525
UKube-1 30 Jun 13:25:33 13:29:48 57° 288° (WNW) 13:34:00 .
YUBILEINY 30 Jun 13:30:38 13:39:18 68° 283° (WNW) 13:48:06 435.215
AIST 2 30 Jun 13:31:08 13:35:12 53° 238° (WSW) 13:39:15 435.215
AISAT 30 Jun 13:36:52 13:40:38 29° 294° (WNW) 13:44:25 437.250
50 SAT 30 Jun 13:38:16 13:40:58 19° 295° (WNW) 13:43:38 437.505
ESTCUBE 1 30 Jun 13:41:35 13:44:47 19° 299° (WNW) 13:47:58 437.505/2401.250
Cosmos 2491 30 Jun 13:44:30 13:50:52 23° 282° (WNW) 13:57:14 435.465 / 435.565
DX 1 30 Jun 13:49:43 13:53:25 28° 295° (WNW) 13:57:07 434.975-435.025
Oscar 19 30 Jun 14:12:17 14:16:47 30° 265° (W) 14:21:18 437.125/150
CUBEBUG 1 30 Jun 14:20:22 14:21:54 12° 303° (WNW) 14:23:26 437.445
SWISSCUBE 30 Jun 14:25:15 14:29:25 28° 95° (E) 14:33:32 437.505
VELOX 1 30 Jun 14:34:53 14:35:21 10° 305° (NW) 14:35:49 145.980
TISAT 1 30 Jun 14:35:59 14:40:03 50° 290° (WNW) 14:44:09 437.305
ITAMSAT 1 30 Jun 14:38:12 14:43:26 86° 73° (ENE) 14:48:42 435.822/435.867
AO-7 30 Jun 14:38:34 14:46:38 57° 62° (ENE) 14:54:45 29.400- 29.500
Gurwin Techsat 1B 30 Jun 14:45:25 14:50:15 35° 264° (W) 14:55:08 435.225
BEESAT 30 Jun 14:50:01 14:54:37 44° 99° (E) 14:59:10 436.000
JAS-2 30 Jun 14:51:10 14:52:59 11° 277° (W) 14:54:46 435.910
ITUPSAT 1 30 Jun 14:52:26 14:57:04 45° 99° (E) 15:01:40 437.325
ISS 30 Jun 14:54:02 14:56:39 22° 221° (SW) 14:59:15 145.825
RS-15 30 Jun 15:00:55 15:11:48 40° 339° (NNW) 15:23:09 29.354- 29.394
SPROUT 30 Jun 15:01:53 15:02:35 10° 304° (WNW) 15:03:17 437.525
SO-50 30 Jun 15:08:50 15:13:13 34° 117° (ESE) 15:17:36 436.795
Cosmos 2504 30 Jun 15:15:59 15:23:57 49° 289° (WNW) 15:32:25 435.465 / 435.565
HORYU 2 30 Jun 15:32:42 15:35:59 21° 62° (ENE) 15:39:16 437.375
YUBILEINY 30 Jun 15:32:43 15:38:05 17° 308° (NW) 15:43:31 435.215
SWISSCUBE 30 Jun 16:02:51 16:07:17 38° 293° (WNW) 16:11:41 437.505
NOAA 15 30 Jun 16:17:58 16:21:15 17° 56° (NE) 16:24:32 137.62
ITAMSAT 1 30 Jun 16:20:53 16:23:36 14° 272° (W) 16:26:19 435.822/435.867
AIST 1 30 Jun 16:27:27 16:31:19 33° 91° (E) 16:35:11
BEESAT 30 Jun 16:28:14 16:32:11 26° 297° (WNW) 16:36:07 436.000
ITUPSAT 1 30 Jun 16:30:46 16:34:41 25° 297° (WNW) 16:38:35 437.325
AO-7 30 Jun 16:32:03 16:39:41 39° 263° (W) 16:47:26 29.400- 29.500
KKS-1 30 Jun 16:41:26 16:45:53 74° 102° (ESE) 16:50:21 437.445
BRITE-PL 30 Jun 16:44:12 16:47:47 21° 64° (ENE) 16:51:12 437.365/2234.400
CUBESAT XI-V 30 Jun 16:46:24 16:47:33 11° 86° (E) 16:48:43 437.345
MOZHAYETS 4 30 Jun 16:47:22 16:52:03 80° 103° (ESE) 16:56:40
SO-50 30 Jun 16:48:58 16:53:38 43° 316° (NW) 16:58:17 436.795
Cubesat XI-IV 30 Jun 17:01:31 17:05:58 27° 62° (ENE) 17:10:26 437.490
STARS 30 Jun 17:07:37 17:12:02 72° 103° (ESE) 17:16:26 437.465
GOMX 1 30 Jun 17:07:39 17:10:15 16° 62° (ENE) 17:12:48 467.674
HORYU 2 30 Jun 17:07:54 17:12:12 50° 260° (W) 17:16:34 437.375
LilacSat-2 30 Jun 17:12:09 17:15:03 21° 65° (ENE) 17:17:58 437.200
NOAA 18 30 Jun 17:13:06 17:18:06 38° 64° (ENE) 17:23:09 137.9125
Cosmos 2504 30 Jun 17:16:50 17:20:04 12° 315° (NW) 17:23:21 435.465 / 435.565
RS-15 30 Jun 17:17:32 17:28:28 36° 13° (NNE) 17:39:35 29.354- 29.394
GONETS M04 30 Jun 17:33:19 17:41:04 38° 85° (E) 17:48:50
CUTE-I 30 Jun 17:34:17 17:39:25 49° 68° (ENE) 17:44:35 437.470
HO-68 30 Jun 17:37:39 17:41:44 16° 46° (NE) 17:45:49 435.675
CUSAT 1 30 Jun 17:47:39 17:51:06 34° 70° (ENE) 17:53:54 437.405
Cosmos 2499 30 Jun 17:53:08 18:00:32 35° 83° (E) 18:08:14 435.465 / 435.565
NOAA 15 30 Jun 17:55:04 18:00:22 85° 253° (WSW) 18:05:41 137.62
DOVE 4 30 Jun 17:56:03 17:59:11 21° 64° (ENE) 18:02:16 437.250
AIST 1 30 Jun 18:05:24 18:08:58 25° 289° (WNW) 18:12:33
KKS-1 30 Jun 18:19:24 18:21:55 15° 301° (WNW) 18:24:26 437.445
CUBESAT XI-V 30 Jun 18:20:59 18:25:39 89° 99° (E) 18:30:15 437.345
BRITE-PL 30 Jun 18:21:13 18:26:02 52° 260° (W) 18:30:30 437.365/2234.400
MOZHAYETS 4 30 Jun 18:26:02 18:28:36 15° 302° (WNW) 18:31:09
DANDE 30 Jun 18:30:28 18:35:23 46° 71° (ENE) 18:39:02 436.750
SO-50 30 Jun 18:32:45 18:35:22 14° 338° (NNW) 18:37:57 436.795
CINEMA 3 30 Jun 18:35:47 18:38:24 16° 61° (ENE) 18:41:02 145.822/145.860
Cubesat XI-IV 30 Jun 18:40:36 18:45:46 50° 260° (W) 18:51:01 437.490
GOMX 1 30 Jun 18:43:29 18:47:59 64° 259° (W) 18:52:14 467.674
STARS 30 Jun 18:45:20 18:47:52 15° 301° (WNW) 18:50:24 437.465
LilacSat-2 30 Jun 18:45:42 18:49:11 34° 263° (W) 18:52:41 437.200
COMPASS 1 30 Jun 18:46:20 18:47:02 10° 57° (ENE) 18:47:43 437.405
CANX-2 30 Jun 18:50:24 18:53:48 23° 65° (ENE) 18:57:13 2200.000
NOAA 18 30 Jun 18:53:47 18:58:47 36° 263° (W) 19:03:50 137.9125
STRAND 1 30 Jun 18:59:11 19:02:46 19° 90° (E) 19:06:19 437.568
CUTE 1.7 + AOD 2 30 Jun 19:09:29 19:13:15 31° 68° (ENE) 19:17:03 437.475
SEEDS 30 Jun 19:09:42 19:13:05 23° 65° (ENE) 19:16:29 437.485
CUTE-I 30 Jun 19:15:15 19:19:42 26° 267° (W) 19:24:11 437.470
HO-68 30 Jun 19:21:05 19:28:08 64° 67° (ENE) 19:35:13 435.675
GONETS M04 30 Jun 19:29:09 19:37:36 54° 286° (WNW) 19:46:08
CUSAT 1 30 Jun 19:31:17 19:32:33 12° 278° (W) 19:33:44 437.405
RS-15 30 Jun 19:31:30 19:43:47 67° 44° (NE) 19:56:03 29.354- 29.394
DOVE 4 30 Jun 19:32:38 19:36:40 42° 261° (W) 19:40:39 437.250
NOAA 15 30 Jun 19:38:43 19:40:56 13° 273° (W) 19:43:09 137.62
AAUSAT CUBESAT 2 30 Jun 19:41:55 19:45:31 28° 67° (ENE) 19:49:09 437.432
Cosmos 2499 30 Jun 19:44:49 19:53:11 61° 285° (WNW) 20:02:00 435.465 / 435.565
M-CUBED/EXP-1 PRIME 30 Jun 19:50:15 19:53:00 25° 62° (ENE) 19:55:48 437.505
CUBEBUG 2 30 Jun 19:52:47 19:56:29 31° 67° (ENE) 20:00:19 437.445
CUBESAT XI-V 30 Jun 20:00:11 20:02:20 13° 303° (WNW) 20:04:27 437.345
ZACube-1 30 Jun 20:09:15 20:12:37 23° 64° (ENE) 20:16:02 437.345
CINEMA 3 30 Jun 20:11:04 20:15:08 55° 260° (W) 20:19:16 145.822/145.860
Oscar 11 30 Jun 20:14:14 20:17:54 27° 66° (ENE) 20:21:36 145.826/435.025
DANDE 30 Jun 20:14:30 20:17:25 16° 280° (W) 20:19:56 436.750
COMPASS 1 30 Jun 20:17:38 20:21:52 81° 74° (ENE) 20:26:06 437.405
PRISM 30 Jun 20:22:43 20:25:17 16° 91° (E) 20:27:50 437.425
FUNcube-1 30 Jun 20:25:04 20:28:47 30° 67° (ENE) 20:32:35 145.935
CANX-2 30 Jun 20:25:24 20:29:26 40° 262° (W) 20:33:31 2200.000
UWE-3 30 Jun 20:34:40 20:38:48 58° 72° (ENE) 20:43:06 435.000/436.395/437.385
STRAND 1 30 Jun 20:37:17 20:42:24 65° 289° (WNW) 20:47:29 437.568
AO-85 30 Jun 20:39:38 20:44:27 34° 116° (ESE) 20:49:08 145.980
AUBIESAT-1 30 Jun 20:42:35 20:45:52 89° 233° (SW) 20:49:17 437.475
SEEDS 30 Jun 20:44:37 20:48:36 38° 263° (W) 20:52:38 437.485
CUTE 1.7 + AOD 2 30 Jun 20:45:21 20:49:05 29° 265° (W) 20:52:51 437.475
HUMSAT D 30 Jun 21:01:56 21:05:03 20° 63° (ENE) 21:08:11 437.325/437.525
DELFI C3 30 Jun 21:08:37 21:12:27 43° 71° (ENE) 21:16:18 145.870
HO-68 30 Jun 21:10:16 21:16:19 29° 267° (W) 21:22:27 435.675
AAUSAT CUBESAT 2 30 Jun 21:17:15 21:20:57 30° 264° (W) 21:24:42 437.432
M-CUBED/EXP-1 PRIME 30 Jun 21:25:04 21:27:36 21° 260° (W) 21:30:12 437.505
CUBEBUG 2 30 Jun 21:29:32 21:33:08 28° 266° (W) 21:36:51 437.445
GONETS M04 30 Jun 21:33:03 21:36:55 13° 312° (NW) 21:40:47
ESTCUBE 1 30 Jun 21:33:45 21:34:40 11° 55° (NE) 21:35:36 437.505/2401.250
YUBILEINY 30 Jun 21:41:06 21:46:58 19° 54° (NE) 21:52:48 435.215
Cosmos 2499 30 Jun 21:43:34 21:48:31 16° 310° (NW) 21:53:36 435.465 / 435.565
RS-15 30 Jun 21:44:31 21:55:59 48° 249° (WSW) 22:07:22 29.354- 29.394
ZACube-1 30 Jun 21:44:41 21:48:40 40° 262° (W) 21:52:47 437.345
TIGRISAT 30 Jun 21:49:25 21:51:07 12° 87° (E) 21:52:47 435.000
Oscar 11 30 Jun 21:50:00 21:53:57 33° 264° (W) 21:57:55 145.826/435.025
UNISAT 6 30 Jun 21:54:41 21:57:12 14° 88° (E) 21:59:43 437.425
COMPASS 1 30 Jun 21:56:55 21:57:59 11° 273° (W) 21:59:03 437.405
PRISM 30 Jun 21:56:57 22:00:55 51° 289° (WNW) 22:04:51 437.425
SO-50 30 Jun 21:57:08 22:00:25 18° 28° (NNE) 22:03:39 436.795
FUNcube-1 30 Jun 22:01:17 22:05:00 29° 266° (W) 22:08:49 145.935
CUBEBUG 1 30 Jun 22:06:56 22:09:15 14° 59° (ENE) 22:11:35 437.445
UWE-3 30 Jun 22:13:11 22:15:43 15° 271° (W) 22:18:15 435.000/436.395/437.385
STRAND 1 30 Jun 22:19:01 22:20:37 11° 308° (NW) 22:22:12 437.568
AO-85 30 Jun 22:19:38 22:24:52 49° 314° (NW) 22:29:50 145.980
VELOX 1 30 Jun 22:20:41 22:23:42 18° 61° (ENE) 22:26:43 145.980
ANTELSAT 30 Jun 22:33:08 22:37:21 32° 96° (E) 22:41:34 437.575/2403.000
HUMSAT D 30 Jun 22:36:21 22:40:22 45° 262° (W) 22:44:29 437.325/437.525
DELFI C3 30 Jun 22:44:42 22:47:32 18° 268° (W) 22:50:22 145.870
50 SAT 30 Jun 22:44:58 22:48:08 27° 68° (ENE) 22:51:20 437.505
SPROUT 30 Jun 22:45:54 22:48:13 14° 60° (ENE) 22:50:31 437.525
UKube-1 30 Jun 22:48:04 22:51:20 22° 63° (ENE) 22:54:37 .
Cosmos 2491 30 Jun 22:58:12 23:04:01 20° 76° (ENE) 23:09:50 435.465 / 435.565
AISAT 30 Jun 23:00:26 23:04:35 43° 69° (ENE) 23:08:46 437.250
ESTCUBE 1 30 Jun 23:06:09 23:10:40 73° 74° (ENE) 23:15:13 437.505/2401.250
Cosmos 2504 30 Jun 23:11:39 23:18:14 22° 56° (ENE) 23:24:38 435.465 / 435.565
DX 1 30 Jun 23:11:40 23:15:46 43° 69° (ENE) 23:19:53 434.975-435.025
NANOSAT C BR1 30 Jun 23:11:59 23:14:06 13° 89° (E) 23:16:13 145.865
QB50P1 30 Jun 23:16:04 23:18:39 16° 90° (E) 23:21:15 145.935-145.965
POPSAT HIP 1 30 Jun 23:19:23 23:22:09 17° 91° (E) 23:24:55 437.405
TIGRISAT 30 Jun 23:23:44 23:28:25 88° 280° (W) 23:33:07 435.000
UNISAT 6 30 Jun 23:29:45 23:34:25 74° 286° (WNW) 23:39:07 437.425
DUCHIFAT 1 30 Jun 23:30:32 23:33:39 20° 92° (E) 23:36:45 145.980
QB50P2 30 Jun 23:31:51 23:35:19 24° 94° (E) 23:38:46 145.880/145.840
POLYITAN 1 30 Jun 23:34:27 23:37:57 24° 94° (E) 23:41:27 437.675
YUBILEINY 30 Jun 23:36:43 23:45:35 73° 78° (ENE) 23:54:26 435.215
SO-50 30 Jun 23:37:02 23:41:46 71° 50° (NE) 23:46:18 436.795
CUBEBUG 1 30 Jun 23:40:39 23:45:00 74° 258° (WSW) 23:49:21 437.445
VELOX 1 30 Jun 23:55:27 23:59:47 56° 260° (W) 00:04:08 145.980
TISAT 1 30 Jun 23:56:04 23:59:07 20° 63° (ENE) 00:02:11 437.305
AO-85 01 Jul 00:03:20 00:06:30 16° 335° (NNW) 00:09:34 145.980
JAS-2 01 Jul 00:07:56 00:10:55 15° 85° (E) 00:13:49 435.910
ANTELSAT 01 Jul 00:09:53 00:14:01 32° 293° (WNW) 00:18:12 437.575/2403.000
BUGSAT 1 01 Jul 00:15:39 00:19:08 26° 95° (E) 00:22:38 437.445
50 SAT 01 Jul 00:18:41 00:21:48 25° 265° (W) 00:24:56 437.505
SPROUT 01 Jul 00:19:24 00:23:38 70° 258° (WSW) 00:27:54 437.525
UKube-1 01 Jul 00:22:59 00:27:07 44° 261° (W) 00:31:17 .
BEESAT 01 Jul 00:25:35 00:27:03 11° 54° (NE) 00:28:33 436.000
ITUPSAT 1 01 Jul 00:28:04 00:29:47 12° 54° (NE) 00:31:32 437.325
PCSat 01 Jul 00:32:09 00:34:54 14° 103° (ESE) 00:37:40 145.827
AISAT 01 Jul 00:37:54 00:41:16 21° 267° (W) 00:44:39 437.250
Oscar 19 01 Jul 00:44:24 00:44:32 10° 85° (E) 00:44:40 437.125/150
ESTCUBE 1 01 Jul 00:45:44 00:48:00 14° 272° (W) 00:50:17 437.505/2401.250
NANOSAT C BR1 01 Jul 00:46:04 00:50:17 66° 287° (WNW) 00:54:31 145.865
DX 1 01 Jul 00:48:50 00:52:09 21° 267° (W) 00:55:29 434.975-435.025
QB50P1 01 Jul 00:50:36 00:54:48 57° 287° (WNW) 00:58:58 145.935-145.965
Cosmos 2491 01 Jul 00:50:47 00:59:34 86° 97° (E) 01:08:21 435.465 / 435.565
POPSAT HIP 1 01 Jul 00:54:06 00:58:16 53° 288° (WNW) 01:02:25 437.405
TIGRISAT 01 Jul 01:02:16 01:04:25 13° 303° (WNW) 01:06:35 435.000
Cosmos 2504 01 Jul 01:04:11 01:13:10 82° 80° (E) 01:21:44 435.465 / 435.565
DUCHIFAT 1 01 Jul 01:05:31 01:09:33 44° 290° (WNW) 01:13:36 145.980
QB50P2 01 Jul 01:07:17 01:11:13 37° 291° (WNW) 01:15:10 145.880/145.840
UNISAT 6 01 Jul 01:08:58 01:10:20 11° 304° (NW) 01:11:41 437.425
POLYITAN 1 01 Jul 01:09:55 01:13:51 36° 292° (WNW) 01:17:47 437.675
SO-50 01 Jul 01:18:41 01:21:41 17° 249° (WSW) 01:24:37 436.795
Gurwin Techsat 1B 01 Jul 01:21:11 01:22:05 10° 85° (E) 01:22:59 435.225
TISAT 1 01 Jul 01:30:30 01:34:29 44° 261° (W) 01:38:31 437.305
SWISSCUBE 01 Jul 01:34:28 01:39:03 47° 69° (ENE) 01:43:40 437.505
YUBILEINY 01 Jul 01:34:30 01:41:34 28° 280° (W) 01:48:40 435.215
O/OREOS (USA 219) 01 Jul 01:34:41 01:37:56 20° 102° (ESE) 01:41:11 437.305
BEESAT 3 01 Jul 01:44:14 01:47:38 29° 117° (ESE) 01:51:05 437.485
BUGSAT 1 01 Jul 01:50:54 01:54:32 31° 292° (WNW) 01:58:12 437.445
JAS-2 01 Jul 01:51:15 01:56:57 80° 286° (WNW) 02:02:11 435.910
BEESAT 01 Jul 01:59:13 02:03:59 72° 73° (ENE) 02:08:48 436.000
ITUPSAT 1 01 Jul 02:02:00 02:06:48 75° 73° (ENE) 02:11:38 437.325
KKS-1 01 Jul 02:08:38 02:10:46 13° 58° (ENE) 02:12:55 437.445
PCSat 01 Jul 02:12:03 02:17:29 86° 122° (ESE) 02:22:57 145.827
MOZHAYETS 4 01 Jul 02:17:23 02:20:03 15° 59° (ENE) 02:22:44
Oscar 19 01 Jul 02:19:36 02:24:45 74° 103° (ESE) 02:29:52 437.125/150
BEESAT 2 01 Jul 02:26:55 02:30:41 44° 121° (ESE) 02:34:30 435.950
AIST 1 01 Jul 02:32:13 02:34:08 13° 64° (ENE) 02:36:02
STARS 01 Jul 02:33:53 02:35:43 12° 57° (ENE) 02:37:33 437.465
AO-7 01 Jul 02:39:27 02:42:39 12° 83° (E) 02:45:49 29.400- 29.500
ITAMSAT 1 01 Jul 02:48:27 02:52:38 24° 93° (E) 02:56:48 435.822/435.867
Cosmos 2491 01 Jul 02:50:47 02:57:37 25° 301° (WNW) 03:04:29 435.465 / 435.565
Gurwin Techsat 1B 01 Jul 02:57:37 03:02:58 73° 103° (ESE) 03:08:17 435.225
Cosmos 2504 01 Jul 02:58:47 03:05:30 25° 282° (WNW) 03:12:04 435.465 / 435.565
O/OREOS (USA 219) 01 Jul 03:12:38 03:16:59 49° 300° (WNW) 03:21:22 437.305
SWISSCUBE 01 Jul 03:13:17 03:17:04 23° 267° (W) 03:20:54 437.505
BEESAT 3 01 Jul 03:21:38 03:25:15 34° 316° (NW) 03:28:55 437.485
AO-85 01 Jul 03:28:38 03:31:40 16° 25° (NNE) 03:34:33 145.980
AIST 2 01 Jul 03:33:12 03:35:23 14° 111° (ESE) 03:37:36 435.215
JAS-2 01 Jul 03:38:09 03:41:01 14° 309° (NW) 03:43:47 435.910
GONETS M04 01 Jul 03:38:57 03:45:37 23° 58° (ENE) 03:52:16
BEESAT 01 Jul 03:39:34 03:42:18 15° 271° (W) 03:45:05 436.000
Cosmos 2499 01 Jul 03:40:34 03:45:59 17° 51° (NE) 03:51:14 435.465 / 435.565
KKS-1 01 Jul 03:42:18 03:46:42 83° 253° (WSW) 03:51:10 437.445
ITUPSAT 1 01 Jul 03:42:33 03:45:11 15° 271° (W) 03:47:52 437.325
CUBESAT XI-V 01 Jul 03:51:47 03:54:51 17° 60° (ENE) 03:57:54 437.345
MOZHAYETS 4 01 Jul 03:51:59 03:56:37 77° 256° (WSW) 04:01:18
PCSat 01 Jul 03:57:18 04:01:35 23° 324° (NW) 04:05:52 145.827
Oscar 19 01 Jul 04:00:06 04:03:31 18° 302° (WNW) 04:06:55 437.125/150
BEESAT 2 01 Jul 04:05:19 04:08:42 26° 320° (NW) 04:12:05 435.950
STARS 01 Jul 04:07:03 04:11:24 88° 249° (WSW) 04:15:48 437.465
AIST 1 01 Jul 04:08:02 04:12:17 72° 264° (W) 04:16:31
ITAMSAT 1 01 Jul 04:27:19 04:32:24 52° 291° (WNW) 04:37:27 435.822/435.867
AO-7 01 Jul 04:28:52 04:37:11 61° 104° (ESE) 04:45:26 29.400- 29.500
Gurwin Techsat 1B 01 Jul 04:38:39 04:42:21 20° 302° (WNW) 04:46:03 435.225
HORYU 2 01 Jul 04:55:53 04:59:34 24° 94° (E) 05:03:14 437.375
AO-85 01 Jul 05:08:31 05:13:10 61° 49° (NE) 05:17:22 145.980
AIST 2 01 Jul 05:09:13 05:13:20 73° 309° (NW) 05:17:30 435.215
CUBESAT XI-V 01 Jul 05:27:03 05:31:44 67° 258° (WSW) 05:36:25 437.345
Cosmos 2499 01 Jul 05:32:22 05:41:11 66° 76° (ENE) 05:49:24 435.465 / 435.565
NOAA 18 01 Jul 05:34:01 05:35:45 11° 86° (E) 05:37:29 137.9125
GONETS M04 01 Jul 05:34:59 05:43:46 90° 80° (E) 05:52:33
CUTE-I 01 Jul 05:49:25 05:52:25 15° 88° (E) 05:55:25 437.470
DANDE 01 Jul 06:00:42 06:04:04 13° 78° (ENE) 06:07:17 436.750
PHONESAT 2.4 01 Jul 06:06:54 06:08:27 13° 160° (SSE) 06:10:00 2401.200-2431.200
NOAA 15 01 Jul 06:07:25 06:11:53 28° 94° (E) 06:16:21 137.62
LilacSat-2 01 Jul 06:16:06 06:19:02 20° 93° (E) 06:21:59 437.200
STRAND 1 01 Jul 06:17:41 06:22:23 37° 66° (ENE) 06:27:06 437.568
AO-7 01 Jul 06:22:06 06:29:36 38° 305° (NW) 06:37:05 29.400- 29.500
BRITE-PL 01 Jul 06:22:36 06:26:24 34° 97° (E) 06:30:14 437.365/2234.400
HORYU 2 01 Jul 06:32:03 06:36:16 40° 292° (WNW) 06:40:28 437.375
GOMX 1 01 Jul 06:41:47 06:45:21 26° 95° (E) 06:49:01 467.674
CUSAT 1 01 Jul 06:49:53 06:57:00 49° 95° (E) 07:02:51 437.405
AIST 2 01 Jul 06:50:02 06:52:33 15° 330° (NNW) 06:55:05 435.215
AO-85 01 Jul 06:50:02 06:53:04 18° 250° (WSW) 06:55:57 145.980
Cubesat XI-IV 01 Jul 06:54:20 06:59:37 52° 100° (E) 07:04:51 437.490
NOAA 18 01 Jul 07:11:45 07:17:20 75° 104° (ESE) 07:22:54 137.9125
PRISM 01 Jul 07:15:06 07:18:04 19° 63° (ENE) 07:21:03 437.425
Cosmos 2499 01 Jul 07:26:17 07:33:39 32° 279° (W) 07:40:41 435.465 / 435.565
DOVE 4 01 Jul 07:27:18 07:31:21 36° 97° (E) 07:35:35 437.250
CUTE-I 01 Jul 07:27:44 07:33:10 84° 287° (WNW) 07:38:32 437.470
PCSat 01 Jul 07:31:50 07:33:17 11° 16° (NNE) 07:34:46 145.827
GONETS M04 01 Jul 07:33:20 07:39:22 21° 284° (WNW) 07:45:27
ISS 01 Jul 07:35:27 07:37:56 20° 139° (SE) 07:40:25 145.825
DANDE 01 Jul 07:37:36 07:45:46 60° 95° (E) 07:52:58 436.750
PHONESAT 2.4 01 Jul 07:41:58 07:44:27 22° 177° (S) 07:46:56 2401.200-2431.200
NOAA 15 01 Jul 07:46:52 07:51:50 45° 293° (WNW) 07:56:48 137.62
LilacSat-2 01 Jul 07:49:53 07:53:28 36° 290° (WNW) 07:57:03 437.200
STRAND 1 01 Jul 07:56:58 08:01:35 33° 264° (W) 08:06:15 437.568
COMPASS 1 01 Jul 08:00:04 08:00:53 10° 87° (E) 08:01:39 437.405
BRITE-PL 01 Jul 08:01:27 08:04:48 24° 295° (WNW) 08:08:10 437.365/2234.400
CINEMA 3 01 Jul 08:02:02 08:05:58 27° 95° (E) 08:10:01 145.822/145.860
CANX-2 01 Jul 08:07:17 08:11:00 28° 94° (E) 08:14:41 2200.000
AO-7 01 Jul 08:17:17 08:20:02 12° 329° (NNW) 08:22:47 29.400- 29.500
GOMX 1 01 Jul 08:19:44 08:23:32 33° 291° (WNW) 08:27:25 467.674
BEESAT 3 01 Jul 08:21:45 08:23:22 12° 27° (NNE) 08:24:59 437.485
UWE-3 01 Jul 08:23:39 08:24:28 10° 86° (E) 08:25:17 435.000/436.395/437.385
SEEDS 01 Jul 08:25:21 08:29:01 27° 94° (E) 08:32:37 437.485
CUTE 1.7 + AOD 2 01 Jul 08:26:30 08:30:32 38° 97° (E) 08:34:31 437.475
CUSAT 1 01 Jul 08:32:34 08:39:10 36° 289° (WNW) 08:44:40 437.405
HO-68 01 Jul 08:32:46 08:39:45 49° 100° (E) 08:46:41 435.675
Cubesat XI-IV 01 Jul 08:34:58 08:39:23 27° 299° (WNW) 08:43:48 437.490
PRISM 01 Jul 08:49:05 08:53:05 46° 260° (W) 08:57:06 437.425
TIGRISAT 01 Jul 08:51:02 08:53:34 15° 59° (ENE) 08:56:08 435.000
NOAA 18 01 Jul 08:53:28 08:57:25 20° 303° (WNW) 09:01:23 137.9125
AAUSAT CUBESAT 2 01 Jul 08:55:58 08:59:45 32° 96° (E) 09:03:30 437.432
UNISAT 6 01 Jul 08:56:40 08:59:37 18° 61° (ENE) 09:02:38 437.425
M-CUBED/EXP-1 PRIME 01 Jul 09:00:23 09:02:33 14° 98° (E) 09:04:47 437.505
Cosmos 2491 01 Jul 09:02:53 09:06:21 13° 46° (NE) 09:09:48 435.465 / 435.565
BEESAT 2 01 Jul 09:04:59 09:07:25 15° 31° (NNE) 09:09:52 435.950
DOVE 4 01 Jul 09:05:21 09:08:58 26° 294° (WNW) 09:12:42 437.250
CUTE-I 01 Jul 09:09:24 09:12:25 15° 305° (NW) 09:15:26 437.470
ISS 01 Jul 09:10:48 09:14:04 79° 338° (NNW) 09:17:22 145.825
PCSat 01 Jul 09:13:53 09:18:36 29° 41° (NE) 09:23:18 145.827
CUBEBUG 2 01 Jul 09:15:54 09:20:24 48° 99° (E) 09:24:58 437.445
PHONESAT 2.4 01 Jul 09:18:21 09:20:30 18° 194° (SSW) 09:22:40 2401.200-2431.200
DANDE 01 Jul 09:21:23 09:28:53 37° 292° (WNW) 09:35:31 436.750
ZACube-1 01 Jul 09:29:29 09:33:34 31° 95° (E) 09:37:40 437.345
COMPASS 1 01 Jul 09:32:48 09:37:01 82° 285° (WNW) 09:41:11 437.405
Oscar 11 01 Jul 09:33:39 09:37:40 34° 96° (E) 09:41:39 145.826/435.025
ANTELSAT 01 Jul 09:34:59 09:39:02 39° 69° (ENE) 09:43:11 437.575/2403.000
CINEMA 3 01 Jul 09:38:57 09:43:10 37° 291° (WNW) 09:47:31 145.822/145.860
CANX-2 01 Jul 09:43:03 09:46:52 31° 292° (WNW) 09:50:39 2200.000
FUNcube-1 01 Jul 09:45:13 09:49:34 42° 98° (E) 09:53:54 145.935
AUBIESAT-1 01 Jul 09:51:34 09:55:19 39° 104° (ESE) 09:59:18 437.475
UWE-3 01 Jul 09:56:58 10:01:36 85° 106° (ESE) 10:06:16 435.000/436.395/437.385
BEESAT 3 01 Jul 09:58:05 10:01:58 51° 48° (NE) 10:05:49 437.485
SEEDS 01 Jul 10:00:57 10:04:44 31° 292° (WNW) 10:08:28 437.485
RS-15 01 Jul 10:01:56 10:10:33 26° 100° (E) 10:19:26 29.354- 29.394
O/OREOS (USA 219) 01 Jul 10:02:34 10:04:11 12° 42° (NE) 10:05:49 437.305
CUTE 1.7 + AOD 2 01 Jul 10:02:45 10:06:11 24° 295° (WNW) 10:09:36 437.475
NANOSAT C BR1 01 Jul 10:07:15 10:09:50 16° 61° (ENE) 10:12:24 145.865
QB50P1 01 Jul 10:11:38 10:14:32 18° 62° (ENE) 10:17:26 145.935-145.965
POPSAT HIP 1 01 Jul 10:15:01 10:18:01 19° 63° (ENE) 10:21:02 437.405
HUMSAT D 01 Jul 10:16:51 10:20:20 23° 93° (E) 10:23:48 437.325/437.525
DELFI C3 01 Jul 10:17:45 10:21:37 45° 99° (E) 10:25:26 145.870
HO-68 01 Jul 10:20:46 10:27:20 40° 300° (WNW) 10:33:54 435.675
JAS-2 01 Jul 10:23:46 10:27:45 16° 52° (NE) 10:31:31 435.910
TIGRISAT 01 Jul 10:25:23 10:29:42 70° 259° (WSW) 10:34:09 435.000
DUCHIFAT 1 01 Jul 10:25:32 10:28:46 22° 64° (ENE) 10:32:01 145.980
QB50P2 01 Jul 10:27:30 10:31:01 27° 66° (ENE) 10:34:35 145.880/145.840
POLYITAN 1 01 Jul 10:30:05 10:33:39 27° 66° (ENE) 10:37:14 437.675
UNISAT 6 01 Jul 10:31:39 10:35:55 57° 260° (W) 10:40:19 437.425
AAUSAT CUBESAT 2 01 Jul 10:31:39 10:35:08 26° 294° (WNW) 10:38:34 437.432
M-CUBED/EXP-1 PRIME 01 Jul 10:33:29 10:37:21 63° 293° (WNW) 10:41:32 437.505
BEESAT 2 01 Jul 10:41:55 10:45:56 77° 52° (NE) 10:49:56 435.950
ISS 01 Jul 10:47:43 10:50:48 37° 357° (N) 10:53:53 145.825
YUBILEINY 01 Jul 10:49:37 10:54:32 17° 73° (ENE) 10:59:28 435.215
CUBEBUG 2 01 Jul 10:53:09 10:56:45 23° 296° (WNW) 11:00:24 437.445
PCSat 01 Jul 10:57:02 11:02:23 61° 242° (WSW) 11:07:43 145.827
Cosmos 2491 01 Jul 10:57:18 11:05:47 52° 73° (ENE) 11:14:13 435.465 / 435.565
ESTCUBE 1 01 Jul 10:57:27 10:59:15 12° 88° (E) 11:01:03 437.505/2401.250
ZACube-1 01 Jul 11:05:47 11:09:49 32° 293° (WNW) 11:13:53 437.345
BUGSAT 1 01 Jul 11:08:31 11:11:55 27° 67° (ENE) 11:15:21 437.445
COMPASS 1 01 Jul 11:11:15 11:11:51 10° 303° (WNW) 11:12:26 437.405
